TimePST,TemperatureF,Dew PointF,Humidity,Sea Level PressureIn,VisibilityMPH,Wind Direction,Wind SpeedMPH,Gust SpeedMPH,PrecipitationIn,Events,Conditions,WindDirDegrees,DateUTC
12:28 AM,55.4,48.2,77,29.57,10.0,SSW,16.1,24.2,0.00,,Overcast,200,2013-11-19 08:28:00
12:38 AM,55.4,48.2,77,29.57,10.0,SSW,18.4,25.3,0.00,,Overcast,200,2013-11-19 08:38:00
12:53 AM,55.0,48.9,80,29.59,10.0,South,21.9,26.5,0.00,Rain,Light Rain,190,2013-11-19 08:53:00
1:39 AM,55.4,48.2,77,29.58,7.0,SSW,18.4,25.3,0.01,,Overcast,200,2013-11-19 09:39:00
1:51 AM,55.4,48.2,77,29.58,7.0,SSW,18.4,26.5,0.01,Rain,Light Rain,200,2013-11-19 09:51:00
1:53 AM,55.0,48.9,80,29.60,7.0,SSW,16.1,26.5,0.01,Rain,Light Rain,200,2013-11-19 09:53:00
2:07 AM,55.4,50.0,82,29.59,2.0,SSW,16.1,23.0,0.01,Rain,Light Rain,200,2013-11-19 10:07:00
2:53 AM,54.0,50.0,86,29.62,2.0,SSW,17.3,26.5,0.02,,Overcast,210,2013-11-19 10:53:00
3:24 AM,53.6,50.0,88,29.61,6.0,SSW,12.7,25.3,N/A,,Overcast,200,2013-11-19 11:24:00
3:53 AM,54.0,48.9,83,29.65,10.0,SW,11.5,19.6,N/A,,Overcast,230,2013-11-19 11:53:00
4:53 AM,48.9,44.1,83,29.70,10.0,NNE,8.1,-,N/A,,Overcast,20,2013-11-19 12:53:00
5:53 AM,46.9,42.1,83,29.73,6.0,ENE,12.7,-,0.00,Rain,Light Rain,60,2013-11-19 13:53:00
6:47 AM,46.4,41.0,81,29.75,10.0,ENE,6.9,-,0.00,,Overcast,70,2013-11-19 14:47:00
6:53 AM,46.9,39.9,77,29.78,10.0,East,8.1,-,0.00,,Overcast,100,2013-11-19 14:53:00
7:53 AM,46.9,39.9,77,29.80,10.0,NE,18.4,-,0.00,Rain,Light Rain,40,2013-11-19 15:53:00
8:24 AM,46.4,39.2,76,29.78,10.0,ENE,12.7,-,0.00,Rain,Light Rain,60,2013-11-19 16:24:00
8:53 AM,46.0,39.9,79,29.82,10.0,NE,12.7,-,0.00,,Overcast,50,2013-11-19 16:53:00
9:53 AM,46.0,37.9,73,29.83,10.0,ENE,12.7,-,0.00,,Overcast,60,2013-11-19 17:53:00
10:53 AM,46.0,37.9,73,29.86,8.0,ENE,12.7,-,0.00,Rain,Light Rain,70,2013-11-19 18:53:00
11:32 AM,46.4,39.2,76,29.84,10.0,ENE,10.4,-,0.00,Rain,Light Rain,60,2013-11-19 19:32:00
11:53 AM,46.0,37.9,73,29.87,10.0,NE,11.5,-,0.00,Rain,Light Rain,50,2013-11-19 19:53:00
12:22 PM,44.6,37.4,76,29.86,10.0,North,13.8,-,0.00,,Overcast,10,2013-11-19 20:22:00
12:53 PM,45.0,37.9,76,29.89,8.0,NNW,5.8,-,0.00,Rain,Light Rain,340,2013-11-19 20:53:00
1:28 PM,46.4,37.4,71,29.86,10.0,North,8.1,-,0.00,,Mostly Cloudy,360,2013-11-19 21:28:00
1:53 PM,46.0,37.0,71,29.88,10.0,North,6.9,-,0.01,Rain,Light Rain,350,2013-11-19 21:53:00
2:53 PM,46.0,36.0,68,29.89,10.0,North,5.8,-,0.00,,Mostly Cloudy,350,2013-11-19 22:53:00
3:53 PM,46.0,36.0,68,29.90,10.0,NNE,5.8,-,N/A,,Overcast,20,2013-11-19 23:53:00
4:53 PM,46.0,36.0,68,29.91,10.0,NNE,3.5,-,N/A,,Overcast,30,2013-11-20 00:53:00
5:53 PM,45.0,30.9,58,29.93,10.0,NNE,10.4,-,N/A,,Overcast,30,2013-11-20 01:53:00
6:53 PM,44.1,26.1,49,29.94,10.0,North,5.8,-,N/A,,Overcast,10,2013-11-20 02:53:00
7:53 PM,44.1,21.9,42,29.96,10.0,North,12.7,-,N/A,,Overcast,10,2013-11-20 03:53:00
8:53 PM,43.0,21.9,43,29.99,10.0,North,11.5,-,N/A,,Overcast,10,2013-11-20 04:53:00
9:53 PM,42.1,23.0,47,30.02,10.0,North,11.5,-,N/A,,Mostly Cloudy,10,2013-11-20 05:53:00
10:53 PM,42.1,21.9,45,30.06,10.0,North,19.6,-,N/A,,Overcast,360,2013-11-20 06:53:00
11:53 PM,39.9,21.9,49,30.09,10.0,North,13.8,-,N/A,,Scattered Clouds,10,2013-11-20 07:53:00